User: anonymous   Login
Location: Observatorio Las Palmas
(29.0667°N, 110.9333°W)
Time: 08:40:56
(UTC-07:00)
Language:

Skynet4D Del rocket - Orbit

View from above orbital plane
View from above orbital plane
View from above satellite
View from above satellite

Ground track
Ground track

The orbit data is extracted from the following two-line orbital elements,

1 25135U 98002B   15086.20401036  .00000211  00000-0  83204-4 0  9996
2 25135 026.8845 141.9596 0356537 341.0837 057.5458 13.62298467857575
Epoch (UTC): 27 March 2015 04:53:46
Eccentricity: 0.0356537
inclination: 26.8845°
perigee height: 763 km
apogee height: 1291 km
right ascension of ascending node: 141.9596°
argument of perigee: 341.0837°
revolutions per day: 13.62298467
mean anomaly at epoch: 57.5458°
orbit number at epoch: 85757

The dashed part of the orbit path shows where the satellite is in the earth's shadow,  

DLR